Wind_Speed
5 5 4 3 2 2 1 0 1 1 2 2 1 1 1 1 1 1 1 0 1 1 2 3 3 3 3 3 3 3 3 3 3 3 3 4 4 4 4 4 4 4 5
7 6 5 4 3 3 2 2 1 1 1 2 1 0 0 0 1 1 1 0 1 1 1 2 3 3 3 3 3 3 3 3 3 3 2 3 4 4 4 4 4 5 5
8 7 6 5 4 4 3 3 3 1 1 1 1 0 0 0 0 0 0 1 1 1 1 1 2 3 3 3 3 3 3 3 3 3 3 3 3 4 4 5 5 6 6
10 9 8 7 6 5 5 5 4 3 1 1 0 0 1 1 1 1 1 1 1 1 1 1 2 3 3 4 4 3 3 3 3 3 3 3 4 4 4 5 6 7 7
12 11 10 9 8 7 6 6 5 4 2 2 1 1 1 1 1 1 1 1 2 2 2 2 2 3 3 4 4 4 3 3 4 4 4 4 4 4 5 5 6 6 7
13 13 12 11 10 9 8 7 6 5 4 4 3 3 3 2 2 1 1 1 2 2 2 3 3 3 3 3 3 3 3 3 3 4 4 4 5 5 5 6 6 6 7
14 13 13 12 11 10 10 9 8 7 6 5 5 4 3 3 2 2 2 2 2 3 3 4 4 4 4 4 4 4 4 4 4 5 5 5 6 6 6 6 6 6 7
15 14 14 13 12 11 11 10 9 9 8 7 6 6 5 5 4 3 3 3 3 3 3 3 4 4 5 5 5 4 4 4 5 5 6 6 7 7 7 7 7 7 7
16 15 15 14 13 13 12 12 12 11 9 9 8 7 7 6 6 5 4 4 4 4 3 3 4 5 6 6 5 5 6 6 6 6 6 7 8 8 9 9 8 8 9
17 16 16 15 15 15 15 14 13 12 11 10 9 8 8 8 7 7 7 6 6 6 5 5 5 5 6 6 7 6 7 7 7 7 8 8 8 9 9 9 10 11 11
19 18 17 16 16 17 16 15 15 14 13 12 10 10 10 10 10 9 9 9 8 8 8 8 8 8 8 9 9 9 9 9 9 10 10 10 10 11 11 12 12 13 13
20 19 18 17 17 17 18 17 16 15 14 14 13 12 12 12 12 12 11 11 11 11 10 10 11 11 11 11 11 12 12 12 12 12 12 13 13 13 14 14 15 15 15
21 21 20 19 18 18 19 19 18 17 16 16 15 14 14 13 13 14 14 13 13 13 13 13 13 14 14 14 14 15 15 16 16 16 16 16 16 17 17 18 18 19 19
21 21 21 20 20 20 20 21 20 19 19 18 17 17 16 16 15 15 16 16 16 16 16 16 16 16 17 17 18 18 19 19 19 19 19 19 20 20 21 21 22 23 23
22 22 22 21 21 21 21 22 22 21 21 20 20 19 19 18 17 17 18 18 18 18 18 19 19 20 20 21 22 22 22 22 23 23 23 24 24 24 24 25 26 26 27
22 23 22 23 23 23 23 23 23 23 23 22 21 20 20 20 19 19 19 19 20 20 20 21 22 23 23 24 24 25 25 26 26 27 27 28 28 28 28 29 29 30 31
22 23 23 23 24 24 24 25 25 25 25 24 23 23 22 22 22 21 21 21 22 22 22 23 24 24 25 26 27 28 28 28 29 30 30 31 31 32 33 33 33 34 34
20 22 23 24 25 25 25 25 26 26 25 25 25 25 25 25 24 24 24 24 24 24 24 25 26 26 26 27 28 28 28 29 30 31 32 33 34 35 36 36 36 37 38
20 21 23 23 24 25 25 25 25 26 27 27 27 27 27 26 26 26 26 26 27 27 27 28 28 29 29 29 29 30 30 31 32 34 35 36 36 37 38 38 39 40 41
19 21 22 23 23 24 25 26 26 26 27 28 27 28 28 28 28 29 28 29 29 30 30 30 30 31 32 32 32 33 34 34 35 36 37 38 39 40 40 41 42 42 43
18 18 20 21 23 23 24 25 26 26 28 28 28 28 28 29 29 30 31 32 32 32 32 32 32 33 34 35 36 36 36 37 38 39 39 40 42 43 43 44 45 46 46
16 17 19 19 21 22 23 24 25 26 27 28 28 29 30 31 31 32 32 32 33 34 34 34 35 36 37 38 39 39 39 39 40 41 42 43 44 45 46 47 48 48 49
16 17 18 20 20 21 23 24 25 26 27 27 29 30 31 31 32 33 33 34 35 36 37 38 38 39 40 40 41 40 41 42 43 44 45 45 46 48 49 50 50 51 51
17 18 19 21 22 22 23 24 25 26 28 29 30 30 31 31 32 33 35 35 36 37 38 39 40 41 41 41 42 43 43 44 45 46 48 48 49 50 51 52 52 53 54
18 18 20 22 22 22 24 25 26 28 29 30 30 31 31 31 33 33 34 36 38 39 40 41 42 43 44 44 45 46 46 47 47 48 49 50 51 52 52 53 55 56 56
18 19 20 21 22 22 23 24 26 27 28 29 30 30 31 32 33 35 36 37 37 39 40 42 43 44 44 45 47 48 49 49 50 51 52 54 55 56 55 55 56 57 58
Wind_Direction
245 255 276 284 277 250 223 195 33 32 23 17 35 61 50 46 41 29 23 191 211 229 228 218 218 219 219 217 214 214 219 219 224 232 230 229 235 244 255 262 264 268 270
239 244 259 265 262 244 231 238 279 342 353 353 20 54 79 67 71 69 31 332 240 234 222 227 222 209 212 217 221 220 222 224 235 239 237 242 242 249 255 260 267 272 274
234 237 250 252 248 240 235 238 255 279 308 343 34 93 140 158 275 232 321 295 257 210 197 214 216 205 206 212 222 231 232 236 241 238 247 249 251 258 261 264 270 275 276
232 234 242 244 241 239 237 238 240 240 253 290 314 207 169 179 257 263 284 280 248 200 200 211 211 206 200 209 220 229 238 239 237 240 253 256 257 266 270 273 278 278 278
229 233 238 238 238 237 239 241 236 231 238 261 261 249 237 215 242 266 275 272 247 226 223 226 220 214 211 217 224 228 234 240 245 249 253 260 267 273 280 285 289 287 287
225 234 236 233 234 235 238 241 237 233 233 241 244 246 236 229 228 235 232 239 230 227 230 227 222 222 224 230 235 238 244 254 257 252 253 259 268 275 280 286 290 293 293
226 232 232 231 232 235 236 237 236 234 232 233 239 239 233 228 229 229 226 241 244 245 242 238 233 232 232 233 240 247 256 263 264 260 259 262 268 276 280 280 282 289 290
227 229 231 231 234 236 235 236 237 236 235 235 239 240 238 233 236 242 243 249 253 253 254 251 247 240 238 239 245 254 265 268 271 268 266 267 270 275 279 281 283 287 287
227 227 231 232 233 234 236 237 236 235 236 237 239 238 239 238 240 245 250 253 255 255 255 258 254 251 248 249 255 261 265 269 273 272 271 271 272 276 277 278 281 286 290
226 227 230 234 233 234 235 235 236 234 234 236 237 239 243 244 245 247 253 255 257 259 256 255 254 254 256 258 260 262 266 270 272 271 271 272 274 277 277 276 278 281 284
226 230 232 233 234 232 232 232 233 231 232 235 239 243 246 248 248 250 252 254 256 259 261 260 258 257 260 262 262 264 267 271 273 274 273 274 274 276 277 278 279 280 282
226 229 231 233 233 233 233 232 232 232 234 237 242 245 248 251 252 253 255 257 258 260 264 266 263 262 265 267 267 267 268 270 272 273 274 276 277 278 278 278 278 279 280
227 228 230 233 233 232 232 232 232 234 238 240 243 245 249 251 256 256 257 259 261 262 265 268 268 266 268 268 269 270 271 273 274 274 275 277 278 279 280 279 279 279 279
227 229 230 232 232 232 232 232 232 236 240 243 245 248 250 253 257 259 261 262 263 263 265 267 267 267 268 268 269 271 272 274 275 275 276 277 277 277 278 279 279 280 280
228 229 232 233 233 234 234 234 235 238 242 244 247 250 252 255 258 261 263 264 265 265 266 266 267 268 268 269 270 271 272 273 275 275 275 276 276 277 278 278 279 279 279
230 230 232 234 235 236 237 237 238 240 243 245 248 250 252 255 259 261 263 265 266 267 268 269 270 271 272 272 273 273 274 274 275 275 276 276 277 278 278 279 279 279 279
231 230 233 236 237 237 238 240 241 243 244 247 250 251 253 256 259 260 262 263 266 268 269 270 272 272 273 274 275 275 276 275 277 277 277 278 278 279 279 279 279 279 279
233 232 234 237 238 240 242 243 244 246 247 248 250 252 255 257 260 262 265 266 267 268 269 270 272 273 273 275 276 277 277 278 279 279 279 278 278 278 279 279 279 279 279
237 238 238 238 239 240 241 243 245 246 248 250 251 253 256 258 262 264 265 267 267 268 269 270 272 273 273 275 276 277 278 278 279 279 279 279 279 279 279 279 280 280 280
242 241 240 238 239 241 244 245 248 250 251 252 253 255 257 260 263 265 266 268 270 269 269 270 272 274 274 275 277 278 279 280 280 280 279 280 280 279 279 280 280 280 280
244 244 240 239 240 244 247 249 250 252 254 254 255 258 261 264 264 266 267 268 270 271 271 271 272 274 275 276 277 278 278 279 280 281 281 281 281 280 280 280 280 280 280
248 247 244 244 246 248 251 253 255 256 258 258 260 263 265 266 267 268 270 271 273 273 273 273 273 275 276 277 277 277 277 278 279 279 280 281 281 280 280 280 280 280 281
256 254 251 250 252 252 254 258 260 261 262 264 263 264 267 268 269 268 269 271 272 273 273 274 275 276 277 277 277 278 278 278 278 279 280 281 281 281 281 281 281 281 281
256 256 255 254 255 257 258 260 261 262 264 265 266 268 271 269 269 270 271 272 272 274 275 276 277 278 278 278 278 278 278 278 279 280 281 281 281 281 281 281 281 280 280
262 262 262 261 260 259 261 264 265 266 268 268 270 271 272 271 272 273 275 276 276 276 276 276 277 278 278 278 278 279 279 279 280 281 281 281 280 281 281 281 280 280 280
265 266 267 266 264 262 263 266 267 268 269 270 272 273 273 275 276 276 277 277 278 279 278 278 279 279 280 280 280 280 280 280 281 282 282 281 282 282 282 282 282 282 281
Height
5888 5889 5890 5890 5891 5891 5892 5892 5892 5892 5892 5892 5892 5892 5892 5892 5893 5893 5893 5893 5893 5893 5894 5894 5894 5895 5895 5896 5896 5896 5896 5897 5897 5897 5897 5898 5898 5899 5899 5899 5900 5900 5900
5887 5888 5889 5890 5890 5891 5891 5892 5892 5892 5892 5892 5892 5892 5892 5892 5892 5893 5893 5893 5893 5893 5894 5894 5894 5894 5895 5895 5896 5896 5896 5896 5896 5897 5897 5897 5898 5898 5898 5899 5899 5899 5899
5885 5887 5888 5889 5890 5890 5891 5891 5892 5892 5892 5892 5892 5892 5892 5892 5892 5893 5893 5893 5893 5893 5893 5893 5894 5894 5894 5895 5895 5896 5896 5896 5896 5896 5897 5897 5897 5898 5898 5898 5898 5898 5898
5884 5885 5886 5887 5888 5889 5890 5891 5891 5892 5892 5892 5892 5892 5892 5892 5892 5893 5893 5893 5893 5893 5893 5893 5893 5894 5894 5894 5895 5895 5896 5896 5896 5896 5896 5897 5897 5897 5897 5897 5897 5897 5897
5882 5883 5884 5886 5887 5888 5889 5890 5890 5891 5891 5891 5892 5892 5892 5892 5892 5893 5893 5893 5893 5893 5893 5893 5893 5894 5894 5894 5895 5895 5895 5895 5896 5896 5896 5896 5896 5896 5896 5896 5896 5896 5895
5879 5881 5882 5884 5885 5886 5888 5889 5889 5890 5890 5891 5891 5891 5892 5892 5892 5892 5893 5893 5893 5893 5893 5893 5893 5893 5894 5894 5894 5895 5895 5895 5895 5895 5895 5895 5895 5895 5895 5895 5895 5894 5894
5876 5878 5880 5882 5883 5885 5886 5887 5888 5889 5889 5890 5890 5891 5891 5892 5892 5892 5892 5892 5892 5892 5892 5892 5892 5893 5893 5894 5894 5894 5894 5894 5894 5894 5894 5894 5894 5894 5894 5894 5893 5893 5892
5873 5876 5878 5880 5881 5883 5884 5885 5887 5888 5888 5889 5889 5890 5891 5892 5892 5892 5892 5892 5892 5892 5892 5892 5892 5892 5893 5893 5893 5894 5894 5893 5893 5893 5893 5893 5893 5893 5893 5892 5892 5891 5891
5871 5873 5875 5877 5879 5880 5881 5883 5885 5886 5887 5888 5888 5889 5890 5890 5891 5891 5891 5891 5891 5891 5891 5891 5891 5892 5892 5892 5893 5893 5893 5892 5892 5892 5892 5892 5892 5891 5891 5891 5890 5890 5890
5868 5870 5872 5874 5876 5877 5879 5880 5882 5884 5885 5886 5887 5888 5889 5889 5890 5890 5891 5891 5891 5891 5891 5891 5891 5891 5891 5891 5892 5892 5891 5891 5891 5891 5890 5890 5890 5890 5889 5889 5888 5888 5887
5865 5867 5869 5871 5873 5874 5876 5878 5880 5881 5883 5884 5885 5886 5887 5888 5888 5889 5889 5889 5889 5889 5889 5889 5889 5890 5890 5890 5890 5890 5890 5890 5889 5889 5889 5888 5888 5887 5887 5887 5886 5885 5885
5862 5864 5866 5868 5870 5871 5873 5875 5877 5879 5880 5882 5883 5884 5885 5886 5886 5886 5887 5887 5887 5888 5888 5888 5888 5888 5888 5888 5888 5888 5888 5887 5887 5887 5886 5886 5885 5885 5884 5884 5883 5882 5882
5858 5860 5862 5864 5866 5868 5870 5872 5874 5876 5877 5879 5880 5881 5882 5883 5883 5884 5884 5884 5885 5885 5885 5885 5885 5885 5885 5885 5885 5885 5885 5884 5884 5883 5883 5883 5882 5881 5881 5880 5879 5878 5877
5854 5856 5858 5860 5862 5864 5866 5868 5870 5872 5874 5875 5877 5878 5879 5880 5880 5881 5881 5881 5881 5882 5882 5882 5882 5881 5881 5881 5881 5881 5881 5880 5880 5879 5879 5878 5878 5877 5876 5875 5874 5873 5873
5849 5852 5854 5856 5859 5861 5862 5864 5866 5868 5870 5872 5873 5874 5875 5876 5877 5877 5877 5878 5878 5878 5878 5878 5877 5877 5877 5877 5876 5876 5876 5875 5875 5874 5873 5873 5872 5872 5871 5870 5869 5868 5867
5844 5847 5850 5852 5854 5856 5858 5861 5862 5864 5866 5867 5869 5870 5871 5872 5872 5873 5873 5873 5874 5874 5874 5873 5873 5872 5872 5872 5871 5870 5870 5869 5869 5868 5868 5867 5866 5865 5864 5863 5862 5861 5860
5840 5843 5845 5848 5850 5852 5854 5856 5858 5859 5861 5863 5864 5865 5866 5867 5868 5868 5868 5868 5868 5869 5868 5868 5867 5866 5866 5866 5865 5864 5864 5863 5862 5861 5861 5860 5859 5858 5857 5856 5854 5853 5852
5836 5838 5841 5843 5845 5847 5849 5851 5852 5854 5856 5857 5859 5860 5861 5861 5862 5862 5863 5863 5863 5863 5862 5862 5861 5860 5860 5859 5859 5858 5857 5856 5855 5854 5853 5851 5850 5849 5848 5847 5845 5844 5843
5832 5834 5836 5838 5840 5841 5843 5845 5847 5848 5850 5851 5852 5853 5854 5855 5856 5856 5856 5856 5856 5856 5856 5855 5854 5853 5853 5852 5852 5851 5849 5848 5847 5846 5844 5843 5841 5840 5838 5837 5835 5834 5833
5828 5830 5831 5833 5835 5837 5838 5840 5841 5842 5844 5845 5846 5847 5848 5849 5849 5849 5849 5849 5849 5849 5848 5848 5847 5846 5845 5844 5844 5842 5841 5840 5838 5837 5835 5833 5832 5830 5828 5826 5825 5823 5821
5824 5825 5826 5828 5830 5832 5833 5835 5836 5837 5838 5839 5839 5840 5841 5842 5842 5842 5842 5842 5841 5841 5840 5840 5839 5838 5837 5836 5835 5833 5832 5830 5829 5827 5825 5823 5821 5819 5817 5815 5813 5811 5809
5820 5821 5822 5824 5825 5827 5828 5829 5830 5831 5832 5832 5833 5834 5834 5834 5834 5834 5834 5833 5833 5832 5832 5831 5830 5829 5828 5826 5825 5823 5822 5820 5818 5816 5814 5812 5809 5807 5804 5802 5800 5798 5796
5816 5817 5818 5819 5820 5822 5823 5824 5824 5825 5825 5826 5826 5826 5826 5826 5825 5825 5825 5824 5824 5823 5822 5822 5820 5819 5817 5815 5814 5812 5810 5809 5807 5804 5802 5800 5797 5794 5792 5789 5786 5784 5782
5812 5813 5814 5815 5816 5817 5817 5818 5819 5819 5819 5819 5819 5819 5819 5818 5818 5817 5816 5815 5814 5813 5812 5811 5810 5808 5806 5804 5802 5801 5798 5797 5795 5792 5789 5787 5785 5782 5778 5775 5772 5769 5766
5808 5808 5809 5810 5810 5811 5811 5812 5812 5812 5812 5812 5811 5811 5811 5811 5809 5808 5807 5806 5804 5803 5801 5800 5798 5796 5794 5792 5790 5788 5786 5783 5781 5779 5775 5773 5770 5767 5764 5761 5756 5753 5751
5804 5804 5804 5804 5804 5805 5806 5806 5806 5805 5805 5804 5804 5804 5803 5802 5801 5799 5798 5796 5795 5793 5791 5789 5787 5785 5782 5780 5777 5775 5772 5769 5767 5764 5761 5757 5754 5751 5749 5746 5741 5737 5733